Presure
207 201 195 198 187 188 184 191 193 183 190 179 153 147 142 161 154 167 179 164 185 170 182 92 111 82 171 149 161 154 159 178 145 194 171 183 166 150 161 184 177 200 182
193 188 203 202 190 181 196 191 164 186 189 200 179 182 153 175 208 137 97 153 162 129 179 160 141 177 144 194 168 181 174 208 178 177 175 188 140 188 180 180 198 194 149
139 201 202 180 193 190 191 196 186 180 169 192 186 176 162 182 188 164 174 196 177 161 172 183 158 140 194 149 164 167 152 183 199 168 173 180 188 182 179 190 195 203 199
150 162 203 203 189 179 198 195 192 200 191 190 186 200 184 135 181 177 159 142 192 169 181 190 187 187 174 164 163 172 186 196 164 186 191 204 195 192 195 182 166 191 190
195 202 197 169 204 200 193 204 184 187 194 195 200 192 190 162 177 185 178 187 192 182 160 185 186 190 194 175 163 165 200 180 171 217 201 168 177 167 181 169 191 172 195
244 192 154 197 204 185 193 195 192 212 202 205 198 191 189 205 190 180 185 168 174 197 191 194 152 194 138 199 174 190 158 194 151 219 155 177 161 198 175 179 172 162 196
237 237 221 214 222 162 205 203 195 191 201 197 195 195 191 190 175 182 176 167 190 189 181 181 174 183 198 163 158 194 177 156 178 177 180 172 176 200 205 208 201 199 193
204 223 249 224 220 153 210 194 207 198 201 198 200 201 214 193 196 193 186 196 189 170 168 192 172 193 159 192 164 171 160 173 192 173 170 214 202 194 197 198 191 204 218
219 215 197 218 241 197 214 213 211 211 210 198 197 212 201 199 205 200 197 169 162 196 194 189 177 180 200 160 172 168 171 204 177 220 218 194 194 194 202 201 197 206 202
133 219 224 207 213 202 172 149 242 196 334 215 212 201 201 201 202 198 198 214 194 218 199 195 180 196 190 191 187 192 197 184 181 160 207 212 193 186 194 155 198 201 180
214 149 222 237 226 220 206 202 220 277 334 338 226 216 206 206 192 201 203 196 206 198 195 175 191 202 190 180 195 218 205 208 224 200 209 199 187 194 201 212 204 206 215
228 213 216 224 223 225 237 233 218 319 336 320 268 225 202 204 197 201 203 194 200 193 206 211 194 208 203 204 217 192 201 202 198 193 211 213 201 203 213 209 213 220 245
254 253 188 214 216 220 221 232 209 208 341 271 327 228 217 216 208 203 208 215 221 217 203 203 195 202 185 207 209 204 193 202 205 177 215 210 233 222 167 217 233 233 262
263 237 264 253 209 209 217 225 234 215 211 300 362 225 216 214 214 204 222 207 216 206 188 186 194 212 218 212 203 200 208 196 217 221 214 223 237 279 272 284 212 275 210
258 256 256 267 258 245 215 211 223 219 218 162 226 273 224 216 215 218 213 205 208 216 224 221 218 203 203 224 212 224 223 204 270 270 194 250 251 271 210 212 223 196 192
246 263 252 234 234 259 228 215 220 220 221 231 262 263 267 271 222 225 212 213 217 209 208 211 229 214 238 198 203 226 251 234 235 231 227 210 209 197 187 195 197 200 211
270 264 252 257 127 258 247 224 223 214 215 223 226 242 261 265 266 278 205 223 222 220 211 224 142 212 238 214 214 249 228 113 162 194 206 214 202 202 198 194 208 204 202
271 266 249 261 264 232 248 249 216 222 214 220 211 220 239 229 248 160 161 162 240 237 221 207 187 222 270 256 236 216 215 220 218 201 201 195 198 207 207 198 200 200 195
271 265 261 262 269 237 251 251 235 219 220 219 186 208 217 221 234 240 244 251 256 259 260 260 261 247 238 226 210 202 203 210 208 212 202 204 204 206 206 203 203 202 202
275 269 266 270 268 264 241 231 251 259 217 216 217 213 223 218 206 205 219 218 211 211 209 208 195 212 212 212 207 204 204 208 205 206 208 212 213 205 206 213 205 207 217
283 270 267 270 266 269 265 246 271 254 254 225 193 126 224 221 213 209 207 215 130 160 217 214 214 212 210 216 219 211 206 206 208 217 219 208 206 213 215 213 212 228 226
280 278 277 283 273 266 255 255 275 277 236 244 246 250 236 224 220 218 216 218 219 218 215 212 211 208 206 210 211 208 206 206 212 215 217 214 215 211 221 230 231 237 242
274 276 273 279 285 280 270 268 266 268 257 259 262 258 240 257 267 241 227 225 222 221 221 223 223 223 224 227 221 231 229 230 228 229 231 234 239 242 246 246 250 250 242
269 268 276 284 283 282 282 282 279 266 266 266 266 265 262 253 241 251 262 265 266 259 256 253 255 259 261 259 257 255 253 251 248 251 254 254 261 266 281 270 242 271 276
268 270 272 270 272 273 273 279 285 287 287 289 295 297 297 297 286 259 261 261 261 305 265 304 298 297 260 297 298 297 295 285 265 244 235 261 240 234 246 250 277 194 282
323 292 268 263 267 263 262 263 268 273 277 279 279 279 284 292 297 296 294 292 292 292 291 293 294 294 295 295 296 300 302 300 303 301 302 306 250 163 232 294 290 295 295
Wind_Speed
97 99 100 99 92 90 83 81 80 78 78 69 73 72 64 71 67 68 63 63 58 58 57 40 39 39 54 61 59 64 59 60 65 62 71 66 76 53 73 70 60 67 70
94 87 102 97 97 80 87 86 72 82 79 75 75 76 73 75 70 70 45 69 65 57 62 65 67 54 68 60 64 56 64 72 59 64 71 66 50 62 69 65 70 64 53
52 101 104 81 100 96 97 99 92 82 83 85 78 82 80 79 76 75 74 69 72 67 67 70 63 67 69 69 68 71 66 66 64 74 73 72 72 72 73 72 69 76 72
59 65 105 104 100 79 107 103 96 98 94 89 86 92 86 54 87 82 74 72 82 70 73 75 74 70 75 70 69 66 69 71 64 67 74 77 76 80 79 80 64 72 71
94 113 111 67 110 111 106 109 85 86 97 97 96 88 93 86 86 87 79 85 84 81 77 78 73 73 77 66 64 73 76 73 74 80 76 76 70 84 81 69 83 81 76
110 96 63 109 122 88 111 116 100 116 107 109 100 98 96 96 97 89 92 83 85 93 91 89 66 80 60 85 73 78 75 78 68 86 73 81 84 83 88 83 83 79 82
104 122 118 119 122 64 122 121 110 93 111 107 106 108 105 103 93 93 93 88 99 89 81 81 78 72 85 72 77 83 78 77 80 86 81 87 86 94 91 93 93 85 83
98 97 107 115 120 61 114 92 125 106 105 109 111 100 103 116 120 121 99 112 102 83 83 96 80 92 78 82 85 87 81 84 86 85 87 97 87 86 90 89 87 101 105
104 103 93 103 105 83 99 118 125 119 123 112 115 116 128 124 126 124 121 89 84 110 104 102 90 83 99 81 89 89 86 95 86 101 94 94 88 87 94 95 90 107 99
71 104 104 100 100 94 75 57 113 90 93 135 139 131 132 124 111 116 115 119 107 119 105 103 90 101 95 94 95 92 99 82 82 75 101 97 85 77 87 64 101 105 79
97 76 99 98 99 99 102 96 104 78 75 81 141 138 130 130 112 118 125 111 126 102 106 88 99 105 96 87 103 113 98 98 104 90 109 95 81 95 105 116 108 111 121
105 96 96 98 95 96 92 92 95 55 61 75 112 142 123 131 125 128 127 104 114 107 123 117 95 112 94 100 97 85 98 94 95 92 116 118 100 101 108 110 112 119 121
90 92 88 98 97 95 95 89 88 65 44 87 76 137 137 134 136 130 131 139 129 130 115 115 97 107 81 114 116 111 90 102 107 78 116 112 125 120 79 107 109 109 106
87 92 85 90 96 93 93 89 80 76 60 51 50 130 133 131 137 119 131 126 130 123 87 84 96 121 125 117 102 101 110 93 114 115 108 120 116 110 104 105 81 101 84
86 88 86 84 84 91 94 89 85 80 68 72 60 89 136 135 130 141 134 107 118 133 129 129 123 105 108 132 115 122 116 100 97 92 81 97 93 96 84 84 86 82 81
86 87 88 87 89 84 95 94 89 84 77 68 64 70 75 96 136 141 122 121 120 99 113 122 142 119 131 99 108 117 96 104 98 93 92 84 86 83 81 85 86 89 89
84 87 87 84 74 84 89 95 91 86 82 77 72 69 70 70 87 81 94 140 126 119 117 134 60 114 130 112 112 100 102 57 76 83 86 89 88 90 91 90 95 94 91
82 86 88 86 83 88 86 88 95 92 87 85 80 79 76 76 78 71 69 71 142 152 143 112 104 117 105 100 103 98 95 97 95 87 88 89 92 98 99 95 98 97 94
82 85 87 87 85 90 87 88 99 97 95 94 82 85 85 84 83 83 84 86 88 91 94 98 100 104 103 102 96 91 92 96 97 100 97 99 101 102 104 105 106 107 108
79 83 85 85 86 87 92 94 88 90 99 97 96 91 93 92 88 87 93 93 91 92 92 94 90 97 99 101 98 97 98 101 101 102 102 107 109 105 105 110 110 113 118
74 81 83 84 85 85 86 94 85 90 93 103 93 72 101 101 98 96 95 98 73 81 103 103 104 103 102 107 109 105 102 102 104 111 114 109 107 113 116 116 118 122 122
74 77 79 79 84 85 88 89 84 85 96 97 100 103 105 108 107 106 104 105 107 107 104 102 102 100 100 106 108 105 102 103 113 116 117 115 117 113 122 124 123 123 123
74 75 78 78 79 83 86 87 87 88 93 95 96 100 103 102 103 114 115 114 111 111 112 114 115 116 117 118 118 123 123 124 122 122 124 126 128 128 127 125 127 124 123
76 77 75 75 78 81 83 85 87 90 91 93 95 97 101 105 106 107 109 112 116 120 122 123 124 125 127 129 130 131 131 130 129 130 130 130 130 127 118 118 120 120 119
77 78 79 80 80 81 82 83 84 85 87 88 88 89 91 92 96 107 109 111 112 97 113 99 101 103 118 105 105 106 108 114 122 119 114 120 115 115 121 119 107 78 114
57 73 81 83 84 85 87 87 87 88 88 89 90 91 92 93 95 97 98 98 99 99 100 100 101 101 101 102 103 104 104 105 105 106 106 106 92 70 90 109 111 112 112
Wind_Direction
228 227 233 228 237 241 245 247 244 248 245 243 237 242 246 246 246 254 262 256 260 258 266 268 278 283 265 270 261 277 282 275 290 286 279 286 284 289 288 297 289 311 293
229 236 232 235 238 245 243 251 233 249 250 251 242 247 245 253 246 251 261 252 262 257 265 250 269 261 274 278 262 268 265 285 274 278 277 292 294 292 282 294 308 306 295
242 229 232 242 240 242 246 245 245 245 242 250 247 245 244 256 256 250 254 256 260 247 260 265 264 273 277 274 266 274 280 276 286 274 279 285 294 288 286 298 307 309 310
249 244 232 233 240 246 243 246 246 247 250 251 251 245 253 258 253 252 251 261 266 266 262 269 268 271 271 271 278 269 279 287 282 285 283 295 293 292 296 295 293 304 306
229 223 229 246 234 237 244 245 248 250 251 251 248 247 255 248 252 256 254 263 263 263 253 265 264 269 278 257 267 272 286 281 273 289 289 286 291 286 289 293 304 286 306
227 228 250 229 230 244 239 241 246 247 249 250 248 251 254 250 255 253 259 254 255 267 268 270 261 277 270 279 256 277 280 282 286 290 287 283 288 297 287 291 297 286 311
228 228 228 231 229 251 233 238 245 249 247 253 255 253 253 252 248 253 251 254 260 261 261 261 266 263 277 266 274 279 265 284 272 287 277 285 281 297 296 303 308 309 307
234 231 230 234 233 251 236 245 239 246 246 250 250 251 248 252 252 254 253 257 260 254 262 268 257 273 268 270 269 272 280 269 282 277 282 291 291 295 295 300 299 306 305
230 233 240 231 234 238 241 237 240 244 245 250 251 242 248 250 251 252 254 249 256 263 265 265 263 262 273 269 263 271 278 282 280 288 284 286 292 293 299 302 304 303 305
228 231 233 242 241 245 243 250 241 251 237 241 241 244 244 247 248 254 256 256 258 259 263 264 263 269 268 271 272 275 278 276 276 278 289 289 290 285 295 286 300 299 286
232 231 233 234 235 239 246 248 250 248 234 229 232 236 245 242 251 253 254 256 260 256 262 258 264 268 269 271 273 276 276 279 286 288 289 290 286 290 293 291 295 298 296
230 233 234 235 237 238 241 244 247 255 237 230 229 231 240 243 247 251 254 256 258 258 263 266 263 269 269 273 275 275 280 282 283 285 283 284 289 290 288 292 293 291 289
234 235 233 235 237 240 243 245 245 250 250 234 232 231 235 237 242 247 249 253 254 257 261 264 266 271 270 273 274 275 280 281 282 272 283 285 285 285 282 290 287 289 286
238 233 238 236 239 241 244 246 247 247 250 246 244 231 236 239 241 249 242 255 254 261 260 265 265 266 268 271 275 276 275 277 279 281 285 286 281 274 278 280 284 280 289
236 238 238 237 237 237 243 246 247 247 248 252 243 234 233 240 241 241 247 252 257 257 259 260 262 267 268 270 273 273 276 277 275 273 277 278 277 273 283 288 287 288 288
236 237 237 237 237 236 238 243 246 247 248 248 249 243 240 239 241 242 246 250 252 254 260 261 262 266 268 268 271 272 270 275 275 277 278 281 282 284 284 286 286 288 291
233 236 238 239 239 235 234 239 242 245 246 246 246 248 247 248 244 244 249 247 253 256 258 260 266 263 267 268 269 265 270 291 279 277 279 281 280 282 282 284 289 290 290
233 236 238 240 240 238 237 237 244 243 246 246 247 246 245 247 245 254 255 256 248 251 252 257 261 262 260 258 262 267 271 273 273 277 279 280 282 284 285 286 288 291 293
234 236 239 241 243 240 239 239 238 244 245 245 249 248 247 245 244 244 245 247 247 248 249 251 253 255 257 260 267 272 274 275 277 276 279 280 282 283 284 285 287 287 288
237 239 241 242 243 243 241 243 243 244 247 249 251 252 249 252 254 256 251 253 256 257 258 259 264 264 266 268 270 272 274 274 276 278 279 279 279 282 284 283 285 286 284
239 240 242 244 245 246 246 244 248 245 244 246 253 264 250 251 253 255 257 256 274 267 258 260 261 264 267 266 266 271 274 276 277 276 277 281 283 281 281 283 284 285 285
240 241 242 243 245 246 246 247 251 250 246 245 246 248 252 253 255 256 258 259 260 261 263 266 267 270 271 271 272 275 277 278 277 277 278 279 280 282 281 281 282 284 286
243 244 244 245 246 247 248 249 250 251 249 249 250 250 252 252 253 253 256 258 260 262 263 264 265 267 268 268 270 269 271 272 274 274 275 277 278 280 282 283 283 284 284
245 246 247 248 248 249 249 251 252 252 252 252 252 253 253 254 256 256 256 256 257 259 260 261 262 263 264 265 266 267 268 270 272 274 275 277 278 278 278 279 281 280 280
246 246 247 248 249 249 251 252 252 253 254 255 256 257 258 259 258 257 258 259 260 264 261 265 264 265 265 267 268 269 269 269 270 273 275 274 278 279 279 279 279 285 279
255 251 249 249 249 249 250 251 253 254 255 255 256 257 258 259 259 260 261 262 262 263 264 265 265 266 266 267 268 269 271 272 273 274 276 277 276 275 277 277 278 279 280